• In Latvia
  • List of Countries
  • For 7 days
  • Water Temperature
  • Satellite Maps
  • Weather Map
  • Weather Widgets
  • user-avatar
    Login

    Hourly Weather Peschanki

    Today, 20 September, Thursday

    Time Temperature Precipitation Wind Pressure Humidity
    00:00 +16°C° 0 mm 3 mps 739 mmHg 93%
    01:00 +16°C° 0 mm 3 mps 739 mmHg 95%
    02:00 +15°C° 0 mm 2 mps 739 mmHg 97%
    03:00 +15°C° 0 mm 2 mps 739 mmHg 97%
    04:00 +14°C° 0 mm 3 mps 739 mmHg 97%
    05:00 +14°C° 0 mm 3 mps 739 mmHg 97%
    06:00 +14°C° 0 mm 3 mps 740 mmHg 93%
    07:00 +15°C° 0 mm 4 mps 740 mmHg 89%
    08:00 +17°C° 0 mm 4 mps 740 mmHg 84%
    09:00 +18°C° 0 mm 4 mps 740 mmHg 77%
    10:00 +19°C° 0 mm 4 mps 741 mmHg 70%
    11:00 +20°C° 0 mm 4 mps 741 mmHg 63%
    12:00 +21°C° 0 mm 4 mps 741 mmHg 61%
    13:00 +22°C° 0 mm 4 mps 741 mmHg 58%
    14:00 +22°C° 0 mm 3 mps 741 mmHg 56%
    15:00 +21°C° 0 mm 3 mps 741 mmHg 62%
    16:00 +20°C° 0 mm 2 mps 741 mmHg 68%
    17:00 +19°C° 0 mm 2 mps 741 mmHg 74%
    18:00 +18°C° 0 mm 2 mps 741 mmHg 78%
    19:00 +16°C° 0 mm 2 mps 742 mmHg 83%
    20:00 +15°C° 0 mm 2 mps 742 mmHg 88%
    21:00 +15°C° 0 mm 2 mps 742 mmHg 89%
    22:00 +14°C° 0 mm 2 mps 742 mmHg 91%
    23:00 +14°C° 0 mm 2 mps 742 mmHg 92%

    Tomorrow, 21 September, Friday

    Time Temperature Precipitation Wind Pressure Humidity
    00:00 +14°C° 0 mm 2 mps 742 mmHg 93%
    01:00 +13°C° 0 mm 2 mps 742 mmHg 93%
    02:00 +13°C° 0 mm 2 mps 743 mmHg 94%
    03:00 +13°C° 0 mm 2 mps 743 mmHg 94%
    04:00 +13°C° 0 mm 2 mps 743 mmHg 94%
    05:00 +13°C° 0 mm 2 mps 743 mmHg 95%
    06:00 +14°C° 0 mm 2 mps 743 mmHg 90%
    07:00 +16°C° 0 mm 2 mps 743 mmHg 85%
    08:00 +17°C° 0 mm 2 mps 743 mmHg 80%
    09:00 +19°C° 0 mm 2 mps 743 mmHg 75%
    10:00 +21°C° 0 mm 3 mps 744 mmHg 70%
    11:00 +22°C° 0 mm 3 mps 744 mmHg 65%
    12:00 +24°C° 0 mm 3 mps 743 mmHg 63%
    13:00 +25°C° 0 mm 3 mps 743 mmHg 62%
    14:00 +25°C° 0 mm 3 mps 743 mmHg 60%
    15:00 +24°C° 0 mm 3 mps 743 mmHg 66%
    16:00 +23°C° 0 mm 2 mps 743 mmHg 72%
    17:00 +21°C° 0 mm 2 mps 742 mmHg 78%
    18:00 +19°C° 0 mm 2 mps 742 mmHg 82%
    19:00 +18°C° 0 mm 2 mps 743 mmHg 86%
    20:00 +17°C° 0 mm 2 mps 743 mmHg 89%
    21:00 +17°C° 0 mm 2 mps 742 mmHg 91%
    22:00 +16°C° 0 mm 2 mps 742 mmHg 92%
    23:00 +16°C° 0 mm 2 mps 742 mmHg 93%

    Day after tomorrow, 22 September, Saturday

    Time Temperature Precipitation Wind Pressure Humidity
    00:00 +16°C° 0 mm 3 mps 742 mmHg 94%
    01:00 +16°C° 0 mm 3 mps 742 mmHg 95%
    02:00 +16°C° 0 mm 3 mps 741 mmHg 95%
    03:00 +16°C° 0 mm 3 mps 741 mmHg 95%
    04:00 +16°C° 0 mm 3 mps 741 mmHg 95%
    05:00 +14°C° 0 mm 3 mps 740 mmHg 95%
    06:00 +15°C° 0 mm 4 mps 740 mmHg 89%
    07:00 +18°C° 0 mm 4 mps 740 mmHg 83%
    08:00 +19°C° 0 mm 5 mps 739 mmHg 76%
    09:00 +20°C° 0 mm 5 mps 739 mmHg 69%
    10:00 +21°C° 0 mm 6 mps 738 mmHg 62%
    11:00 +23°C° 0 mm 6 mps 738 mmHg 55%
    12:00 +23°C° 0 mm 6 mps 738 mmHg 54%
    13:00 +23°C° 0 mm 6 mps 737 mmHg 53%
    14:00 +23°C° 0 mm 6 mps 737 mmHg 52%
    15:00 +22°C° 0.2 mm 5 mps 737 mmHg 58%
    16:00 +20°C° 0.2 mm 5 mps 737 mmHg 65%
    17:00 +19°C° 0.2 mm 4 mps 737 mmHg 72%
    18:00 +17°C° 0.5 mm 4 mps 737 mmHg 75%
    19:00 +14°C° 0.5 mm 3 mps 737 mmHg 77%
    20:00 +12°C° 0.5 mm 3 mps 738 mmHg 80%
    21:00 +12°C° 0.1 mm 3 mps 738 mmHg 82%
    22:00 +12°C° 0.1 mm 2 mps 738 mmHg 83%
    23:00 +12°C° 0.1 mm 2 mps 738 mmHg 85%

    23 September, Sunday

    Time Temperature Precipitation Wind Pressure Humidity
    00:00 +10°C° 0.2 mm 2 mps 738 mmHg 87%
    01:00 +10°C° 0.2 mm 2 mps 738 mmHg 89%
    02:00 +10°C° 0.2 mm 2 mps 738 mmHg 92%
    03:00 +9°C° 0.8 mm 2 mps 737 mmHg 93%
    04:00 +9°C° 0.8 mm 2 mps 737 mmHg 94%
    05:00 +9°C° 0.8 mm 2 mps 737 mmHg 95%
    06:00 +9°C° 0.8 mm 2 mps 737 mmHg 95%
    07:00 +9°C° 0.8 mm 2 mps 737 mmHg 94%
    08:00 +9°C° 0.8 mm 2 mps 736 mmHg 94%
    09:00 +10°C° 0.2 mm 2 mps 736 mmHg 91%
    10:00 +10°C° 0.2 mm 2 mps 736 mmHg 88%
    11:00 +11°C° 0.2 mm 3 mps 736 mmHg 85%
    12:00 +12°C° 0.1 mm 3 mps 735 mmHg 81%
    13:00 +12°C° 0.1 mm 3 mps 735 mmHg 76%
    14:00 +13°C° 0.1 mm 3 mps 735 mmHg 72%
    15:00 +12°C° 0.2 mm 3 mps 735 mmHg 75%
    16:00 +11°C° 0.2 mm 3 mps 735 mmHg 79%
    17:00 +11°C° 0.2 mm 3 mps 735 mmHg 82%
    18:00 +10°C° 0.1 mm 3 mps 735 mmHg 85%
    19:00 +9°C° 0.1 mm 3 mps 735 mmHg 87%
    20:00 +8°C° 0.1 mm 3 mps 735 mmHg 90%
    21:00 +8°C° 0 mm 3 mps 735 mmHg 91%
    22:00 +7°C° 0 mm 3 mps 735 mmHg 91%
    23:00 +7°C° 0 mm 3 mps 735 mmHg 92%

    24 September, Monday

    Time Temperature Precipitation Wind Pressure Humidity
    00:00 +7°C° 0 mm 3 mps 735 mmHg 93%
    01:00 +7°C° 0 mm 3 mps 735 mmHg 94%
    02:00 +5°C° 0 mm 3 mps 735 mmHg 95%
    03:00 +5°C° 0 mm 3 mps 735 mmHg 96%
    04:00 +5°C° 0 mm 3 mps 735 mmHg 96%
    05:00 +6°C° 0 mm 2 mps 735 mmHg 97%
    06:00 +7°C° 0 mm 3 mps 735 mmHg 94%
    07:00 +7°C° 0 mm 3 mps 735 mmHg 90%
    08:00 +8°C° 0 mm 3 mps 734 mmHg 87%
    09:00 +8°C° 0.3 mm 4 mps 734 mmHg 86%
    10:00 +8°C° 0.3 mm 4 mps 733 mmHg 84%
    11:00 +9°C° 0.3 mm 5 mps 732 mmHg 83%
    12:00 +8°C° 2.1 mm 5 mps 731 mmHg 86%
    13:00 +8°C° 2.1 mm 5 mps 730 mmHg 89%
    14:00 +7°C° 2.1 mm 6 mps 728 mmHg 92%
    15:00 +7°C° 2.8 mm 6 mps 727 mmHg 92%
    16:00 +7°C° 2.8 mm 6 mps 725 mmHg 93%
    17:00 +7°C° 2.8 mm 6 mps 724 mmHg 93%
    18:00 +8°C° 2.7 mm 6 mps 723 mmHg 93%
    19:00 +9°C° 2.7 mm 5 mps 721 mmHg 93%
    20:00 +9°C° 2.7 mm 5 mps 720 mmHg 94%
    21:00 +9°C° 0.3 mm 5 mps 720 mmHg 92%
    22:00 +9°C° 0.3 mm 5 mps 719 mmHg 90%
    23:00 +8°C° 0.3 mm 5 mps 718 mmHg 88%

    25 September, Tuesday

    Time Temperature Precipitation Wind Pressure Humidity
    00:00 +8°C° 0.2 mm 5 mps 719 mmHg 89%
    01:00 +7°C° 0.2 mm 5 mps 719 mmHg 90%
    02:00 +7°C° 0.2 mm 5 mps 719 mmHg 91%
    03:00 +5°C° 0.4 mm 6 mps 720 mmHg 90%
    04:00 +5°C° 0.4 mm 7 mps 721 mmHg 89%
    05:00 +5°C° 0.4 mm 7 mps 721 mmHg 88%
    06:00 +4°C° 1.1 mm 8 mps 722 mmHg 88%
    07:00 +4°C° 1.1 mm 8 mps 723 mmHg 87%
    08:00 +3°C° 1.1 mm 9 mps 724 mmHg 87%
    09:00 +3°C° 0.9 mm 9 mps 726 mmHg 86%
    10:00 +2°C° 0.9 mm 9 mps 727 mmHg 84%
    11:00 +2°C° 0.9 mm 9 mps 729 mmHg 83%
    12:00 +4°C° 0.2 mm 8 mps 730 mmHg 79%
    13:00 +4°C° 0.2 mm 8 mps 732 mmHg 75%
    14:00 +5°C° 0.2 mm 7 mps 733 mmHg 71%
    15:00 +4°C° 0 mm 6 mps 734 mmHg 70%
    16:00 +5°C° 0 mm 5 mps 735 mmHg 69%
    17:00 +5°C° 0 mm 4 mps 736 mmHg 68%
    18:00 +4°C° 0 mm 4 mps 737 mmHg 71%
    19:00 +4°C° 0 mm 4 mps 737 mmHg 73%
    20:00 +3°C° 0 mm 3 mps 738 mmHg 75%
    21:00 +3°C° 0 mm 3 mps 739 mmHg 78%
    22:00 +3°C° 0 mm 3 mps 739 mmHg 82%
    23:00 +2°C° 0 mm 3 mps 740 mmHg 85%
    Show more